TimeEST,TemperatureF,Dew PointF,Humidity,Sea Level PressureIn,VisibilityMPH,Wind Direction,Wind SpeedMPH,Gust SpeedMPH,PrecipitationIn,Events,Conditions,WindDirDegrees,DateUTC
12:51 AM,27.0,17.1,66,30.06,10.0,WNW,15.0,23.0,N/A,,Partly Cloudy,290,2012-02-19 05:51:00
1:42 AM,26.6,17.6,69,30.03,10.0,West,9.2,-,N/A,,Mostly Cloudy,280,2012-02-19 06:42:00
1:51 AM,26.1,17.1,69,30.08,10.0,WNW,6.9,-,N/A,,Overcast,290,2012-02-19 06:51:00
2:51 AM,26.1,17.1,69,30.07,10.0,NW,3.5,-,N/A,,Overcast,320,2012-02-19 07:51:00
3:51 AM,25.0,16.0,69,30.07,10.0,NW,10.4,-,N/A,,Overcast,320,2012-02-19 08:51:00
4:51 AM,24.1,16.0,71,30.09,10.0,NW,5.8,-,N/A,,Mostly Cloudy,310,2012-02-19 09:51:00
5:51 AM,24.1,16.0,71,30.09,10.0,NNW,8.1,-,N/A,,Overcast,330,2012-02-19 10:51:00
6:51 AM,24.1,16.0,71,30.11,10.0,NW,9.2,-,N/A,,Overcast,310,2012-02-19 11:51:00
7:51 AM,24.1,16.0,71,30.12,10.0,NW,4.6,-,N/A,,Overcast,310,2012-02-19 12:51:00
8:51 AM,24.1,16.0,71,30.14,10.0,NW,8.1,17.3,N/A,,Overcast,320,2012-02-19 13:51:00
9:51 AM,25.0,17.1,72,30.13,10.0,NW,9.2,-,N/A,,Overcast,320,2012-02-19 14:51:00
10:51 AM,26.1,16.0,66,30.13,10.0,West,8.1,-,N/A,,Overcast,280,2012-02-19 15:51:00
11:43 AM,28.4,17.6,64,30.07,10.0,Variable,5.8,-,N/A,,Scattered Clouds,0,2012-02-19 16:43:00
11:51 AM,28.9,17.1,61,30.12,10.0,NW,9.2,-,N/A,,Partly Cloudy,310,2012-02-19 16:51:00
12:51 PM,30.0,15.1,54,30.10,10.0,NW,16.1,24.2,N/A,,Clear,310,2012-02-19 17:51:00
1:51 PM,28.9,15.1,56,30.09,10.0,WNW,13.8,19.6,N/A,,Overcast,300,2012-02-19 18:51:00
2:51 PM,30.0,16.0,56,30.09,10.0,NW,9.2,-,N/A,,Overcast,320,2012-02-19 19:51:00
3:51 PM,28.9,16.0,58,30.08,10.0,NW,6.9,16.1,N/A,,Overcast,310,2012-02-19 20:51:00
4:51 PM,28.9,15.1,56,30.07,10.0,North,8.1,-,N/A,,Overcast,350,2012-02-19 21:51:00
5:51 PM,27.0,14.0,58,30.09,10.0,NW,3.5,-,N/A,,Overcast,310,2012-02-19 22:51:00
6:51 PM,25.0,12.9,60,30.09,10.0,Calm,Calm,-,N/A,,Clear,0,2012-02-19 23:51:00
7:51 PM,21.9,12.9,68,30.11,10.0,Calm,Calm,-,N/A,,Clear,0,2012-02-20 00:51:00
8:51 PM,19.9,12.0,71,30.11,10.0,Calm,Calm,-,N/A,,Clear,0,2012-02-20 01:51:00
9:51 PM,18.0,12.0,78,30.11,10.0,Calm,Calm,-,N/A,,Clear,0,2012-02-20 02:51:00
10:51 PM,-9999,-9999,N/A,30.06,10.0,Calm,Calm,-,N/A,,Clear,0,2012-02-20 03:51:00
11:51 PM,-9999,-9999,N/A,30.06,10.0,Calm,Calm,-,N/A,,Clear,0,2012-02-20 04:51:00